This is the latest recevied weather packets stored in our database for station/object KB1ZFK. If no packets are shown the sender has not sent any weather packets the latest 10 day(s).
| Time | Temp. | Humidity | Pressure | Rain* | Wind** | Luminosity | Snow |
|---|---|---|---|---|---|---|---|
| 1777838834 | 10° C | 45% | 1006 hPa | 0 mm | - | 197 W/m² | - |
| 1777838531 | 10° C | 46% | 1006 hPa | 0 mm | - | 173 W/m² | - |
| 1777838227 | 10° C | 46% | 1005.9 hPa | 0 mm | - | 146 W/m² | - |
| 1777837925 | 10° C | 48% | 1005.8 hPa | 0 mm | - | 163 W/m² | - |
| 1777837621 | 10° C | 52% | 1005.9 hPa | 0 mm | - | 192 W/m² | - |
| 1777837317 | 10.56° C | 49% | 1005.8 hPa | 0 mm | - | 214 W/m² | - |
| 1777837014 | 10.56° C | 50% | 1006.1 hPa | 0 mm | - | 256 W/m² | - |
| 1777836709 | 10° C | 53% | 1005.7 hPa | 0 mm | - | 228 W/m² | - |
| 1777836405 | 10° C | 47% | 1005.8 hPa | 0 mm | - | 168 W/m² | - |
| 1777836101 | 10° C | 48% | 1005.7 hPa | 0 mm | - | 177 W/m² | - |
| 1777835798 | 10° C | 47% | 1005.9 hPa | 0 mm | - | 231 W/m² | - |
| 1777835495 | 10° C | 48% | 1005.8 hPa | 0 mm | - | 241 W/m² | - |
| 1777835192 | 10° C | 52% | 1005.9 hPa | 0 mm | - | 205 W/m² | - |
| 1777834889 | 10.56° C | 50% | 1005.9 hPa | 0 mm | - | 253 W/m² | - |
| 1777834585 | 10.56° C | 50% | 1005.8 hPa | 0 mm | - | 243 W/m² | - |
| 1777834281 | 10° C | 48% | 1006 hPa | 0 mm | - | 252 W/m² | - |
| 1777833976 | 10° C | 48% | 1005.9 hPa | 0 mm | - | 245 W/m² | - |
| 1777833673 | 10° C | 53% | 1005.9 hPa | 0 mm | - | 229 W/m² | - |
| 1777833369 | 10° C | 52% | 1005.9 hPa | 0 mm | - | 208 W/m² | - |
| 1777833067 | 10° C | 52% | 1006 hPa | 0 mm | - | 247 W/m² | - |
| 1777832765 | 9.44° C | 55% | 1005.8 hPa | 0 mm | - | 262 W/m² | - |
| 1777832463 | 8.89° C | 57% | 1006.2 hPa | 0 mm | - | 164 W/m² | - |
| 1777832159 | 9.44° C | 59% | 1005.8 hPa | 0 mm | - | 88 W/m² | - |
| 1777831856 | 9.44° C | 54% | 1006.1 hPa | 0 mm | - | 104 W/m² | - |
| 1777831553 | 10° C | 54% | 1005.9 hPa | 0 mm | - | 159 W/m² | - |
* Rain latest hour (hover to see other rain measurements)
** Current wind speed in m/s (hover to see current wind gust speed)